[[{"header":{"parameterUnit":"m.s-1","parameterCategory":1,"la1":30.2991,"la2":30.254,"lo1":-89.0895,"lo2":-89.0444,"dy":0.0017,"dx":0.0017,"nx":28,"ny":28,"refTime":"2023-11-04T21:00:00:Z","depth":0,"parameterNumber":2,"parameterNumberName":"U-component_of_WINDS"},"data":[0,0,0,0,0,0,0,0,0,0,0,0,0,0,0,0,0,0,0,0,0,0,0,0,0,0,0,0,0,0,0,0,0,0,0,0,0,0,0,0,0,0,0,0,0,0,0,0,0,0,0,0,0,0,0,0,0,0,0.6844,0.6845,0,0.6942,0.6943,0.6944,0.6931,0.693,0.6928,0.6926,0.7031,0.7035,0.7039,0,0,0,0,0,0,0,0,0,0,0,0,0,0.6651,0.6655,0.6844,0.6845,0.6847,0.6941,0.6943,0.6944,0.6931,0.6929,0.6928,0.6926,0.7029,0.7034,0.704,0,0,0,0,0,0,0,0,0,0,0,0,0,0.674,0.6656,0.6844,0.6852,0.6853,0.6941,0.6943,0.6944,0.6932,0.6929,0.6927,0.6925,0.7028,0.7034,0.704,0.7128,0,0,0.706,0.7063,0,0,0,0,0,0,0,0,0.6735,0.6748,0.6849,0.6851,0.6853,0.6922,0.6913,0.7006,0.6932,0.6902,0.6926,0.6924,0.6997,0.7006,0.7029,0.7133,0.7138,0.7061,0.7064,0.7067,0.7069,0,0,0,0,0,0,0,0.6729,0.6743,0.6883,0.6851,0.6853,0.6851,0.6861,0.6931,0.6962,0.6905,0.6904,0.6915,0.6997,0.7023,0.7032,0.7139,0.706,0.7066,0.707,0.7073,0.732,0.7322,0,0,0,0,0,0,0.672,0.6738,0.688,0.6886,0.6787,0.6857,0.6868,0.6902,0.6961,0.6968,0.6917,0.6914,0.7013,0.7024,0.7035,0.7142,0.7067,0.7073,0.7077,0.7317,0.732,0.7323,0,0,0,0,0,0,0.6716,0.6733,0.6876,0.6812,0.683,0.6863,0.6901,0.6905,0.6931,0.6971,0.6977,0.6938,0.7012,0.7026,0.7105,0.7145,0.7076,0.7082,0.7314,0.7318,0.7322,0.7355,0,0,0,0,0,0,0.6711,0.6732,0.6765,0.6813,0.6833,0.6943,0.6904,0.6909,0.6942,0.6939,0.6991,0.6998,0.7011,0.7095,0.7111,0.7153,0.7087,0.731,0.7316,0.732,0.7351,0.736,0.7368,0,0,0,0,0,0.6704,0.6771,0.6766,0.6784,0.6875,0.6945,0.6957,0.697,0.6945,0.6979,0.7004,0.6996,0.7138,0.7103,0.7121,0.7165,0.7308,0.7314,0.732,0.7347,0.7358,0.7368,0,0,0,0,0,0,0.6729,0.6778,0.6773,0.6857,0.6897,0.6943,0.6986,0.6981,0.703,0.7025,0.704,0.7052,0.7132,0.7156,0.7117,0.7253,0.722,0.723,0.7234,0.7245,0.7253,0.7246,0.7092,0,0,0,0,0,0.6744,0.6796,0.6836,0.6907,0.6927,0.6953,0.6984,0.699,0.7032,0.7049,0.708,0.7123,0.7177,0.7212,0.7264,0.7354,0.7365,0.7393,0.7402,0.7409,0.7417,0.7466,0.7479,0.7343,0.7343,0.7343,0,0,0.6776,0.6809,0.6841,0.6913,0.6944,0.6998,0.6967,0.7026,0.7066,0.7059,0.7134,0.7159,0.7207,0.7291,0.733,0.7314,0.7457,0.7416,0.7421,0.7426,0.7473,0.7486,0.7498,0.7347,0.7346,0.7346,0,0,0.6863,0.6893,0.6954,0.6986,0.7033,0.705,0.7065,0.7111,0.7126,0.7202,0.7197,0.7246,0.7339,0.7374,0.7404,0.7502,0.7496,0.7519,0.7564,0.7611,0.7622,0.7631,0.7666,0.7678,0.7527,0.7527,0.7527,0,0.6897,0.6977,0.6987,0.7046,0.7078,0.7072,0.7135,0.7166,0.7228,0.7251,0.7232,0.7348,0.738,0.7472,0.7496,0.752,0.7538,0.7513,0.7619,0.7629,0.7638,0.7671,0.7684,0.7529,0.7529,0.7529,0.7529,0,0.7017,0.7072,0.7117,0.7175,0.7212,0.7273,0.7294,0.733,0.7333,0.7352,0.7429,0.7467,0.7527,0.7549,0.7553,0.7642,0.763,0.7615,0.7582,0.7653,0.7684,0.7697,0.7533,0.7532,0.7531,0.7531,0,0,0.7122,0.7184,0.7201,0.7227,0.7278,0.7322,0.7383,0.7439,0.747,0.7513,0.7565,0.7643,0.7629,0.7663,0.7671,0.7712,0.7787,0.7692,0.7694,0.7708,0.7887,0.7897,0.7912,0.7784,0.7786,0.7788,0.7882,0,0.7213,0.7318,0.7329,0.7425,0.7476,0.7471,0.7524,0.7562,0.7581,0.7629,0.7651,0.7705,0.7683,0.7703,0.7744,0.7769,0.7823,0.7763,0.7833,0.7835,0.782,0.7928,0.794,0.8027,0.7895,0.7897,0.7898,0,0.7333,0.7378,0.7477,0.7521,0.7543,0.759,0.7642,0.7687,0.773,0.7742,0.7779,0.7781,0.7845,0.7808,0.7897,0.7855,0.7884,0.7901,0.7905,0.7912,0.7871,0.7938,0.8055,0.8068,0.7918,0.7916,0.7915,0,0.7399,0.7484,0.7555,0.7578,0.763,0.7663,0.7687,0.7727,0.776,0.7807,0.7828,0.7882,0.7911,0.7953,0.797,0.7942,0.8057,0.8023,0.8069,0.8068,0.8093,0.8091,0.8216,0.8113,0.8112,0.8112,0.8112,0,0.7499,0.756,0.7585,0.7628,0.7697,0.7709,0.7777,0.78,0.7836,0.7884,0.7883,0.7929,0.7949,0.7998,0.8012,0.8082,0.8096,0.8107,0.811,0.8107,0.8105,0.8126,0.812,0.8116,0.8115,0.8114,0.8113,0,0.7584,0.7603,0.768,0.7723,0.7735,0.7784,0.7821,0.7863,0.7882,0.7943,0.7958,0.7987,0.8045,0.8066,0.8136,0.8146,0.8227,0.8225,0.8212,0.8213,0.8257,0.8252,0.84,0.8419,0.8303,0.8304,0.8305,0,0.7647,0.7693,0.7741,0.7772,0.7797,0.7848,0.7881,0.7895,0.793,0.7982,0.8018,0.8075,0.8121,0.8213,0.8241,0.8295,0.8295,0.8342,0.8303,0.8298,0.8295,0.8291,0.8296,0.835,0.8351,0.8352,0.8353,0,0.7755,0.7762,0.7809,0.7859,0.7898,0.7939,0.7979,0.8005,0.8025,0.8065,0.8122,0.8158,0.8229,0.8285,0.834,0.8366,0.8363,0.8365,0.8378,0.8375,0.8365,0.8371,0.8232,0.8361,0.8361,0.836,0.8359,0.8359,0.7831,0.7872,0.7911,0.7963,0.7994,0.8031,0.8072,0.8095,0.8143,0.8201,0.8207,0.8269,0.8311,0.8384,0.8412,0.8461,0.8449,0.8468,0.8473,0.8477,0.848,0.8358,0.8472,0.8472,0.8471,0.8471,0.8471,0,0.7939,0.7963,0.8011,0.8066,0.8107,0.8099,0.8142,0.8178,0.8232,0.827,0.8315,0.8381,0.8436,0.8468,0.8523,0.8556,0.8556,0.857,0.8568,0.8573,0.8489,0.8472,0.8569,0.8569,0.8569,0.8569,0.8569,0.8569,0.8,0.8068,0.8079,0.8163,0.8188,0.8248,0.8273,0.8307,0.8338,0.8411,0.8456,0.8476,0.8512,0.8569,0.8619,0.8627,0.8647,0.8662,0.8669,0.859,0.8579,0.857,0.8553,0.8666,0.8667,0.8749,0.875,0.875]},{"header":{"parameterUnit":"m.s-1","parameterCategory":1,"la1":30.2991,"la2":30.254,"lo1":-89.0895,"lo2":-89.0444,"dy":0.0017,"dx":0.0017,"nx":28,"ny":28,"refTime":"2023-11-04T21:00:00:Z","depth":0,"parameterNumber":3,"parameterNumberName":"V-component_of_WINDS"},"data":[0,0,0,0,0,0,0,0,0,0,0,0,0,0,0,0,0,0,0,0,0,0,0,0,0,0,0,0,0,0,0,0,0,0,0,0,0,0,0,0,0,0,0,0,0,0,0,0,0,0,0,0,0,0,0,0,0,0,1.3492,1.3491,0,1.3484,1.3484,1.3484,1.3395,1.3393,1.3391,1.3389,1.3381,1.3382,1.3384,0,0,0,0,0,0,0,0,0,0,0,0,0,1.3428,1.343,1.3492,1.3491,1.3491,1.3484,1.3484,1.3484,1.3396,1.3393,1.339,1.3388,1.338,1.3382,1.3384,0,0,0,0,0,0,0,0,0,0,0,0,0,1.3442,1.343,1.3492,1.3447,1.3442,1.3484,1.3484,1.3483,1.3396,1.3393,1.3389,1.3386,1.3379,1.3382,1.3385,1.3469,0,0,1.3393,1.3394,0,0,0,0,0,0,0,0,1.3441,1.3444,1.3453,1.345,1.3445,1.3437,1.3458,1.3478,1.3397,1.3414,1.3389,1.3385,1.3402,1.3403,1.3409,1.3468,1.3468,1.3393,1.3395,1.3396,1.3397,0,0,0,0,0,0,0,1.344,1.3444,1.3488,1.3454,1.3449,1.3426,1.3424,1.3462,1.3427,1.3412,1.3406,1.3406,1.3399,1.3406,1.3408,1.3468,1.3393,1.3396,1.3398,1.3399,1.359,1.3594,0,0,0,0,0,0,1.3446,1.3444,1.3489,1.3488,1.3435,1.343,1.3428,1.3443,1.3426,1.342,1.3409,1.3402,1.3403,1.3405,1.3407,1.35,1.3396,1.3399,1.3401,1.3587,1.3591,1.3595,0,0,0,0,0,0,1.3445,1.3451,1.3489,1.3464,1.3467,1.3435,1.3452,1.3445,1.3451,1.3424,1.3417,1.3422,1.34,1.3403,1.3453,1.3498,1.34,1.3403,1.3583,1.3588,1.3593,1.3689,0,0,0,0,0,0,1.3443,1.3451,1.3483,1.3466,1.3469,1.3536,1.3455,1.3447,1.3456,1.3447,1.3434,1.3429,1.3398,1.3449,1.3456,1.35,1.3405,1.3579,1.3585,1.3591,1.3681,1.3696,1.371,0,0,0,0,0,1.3441,1.3511,1.3485,1.3491,1.3509,1.3539,1.354,1.3503,1.3461,1.3492,1.3473,1.3429,1.3493,1.3455,1.3461,1.3508,1.3576,1.3583,1.3591,1.3675,1.3694,1.3709,0,0,0,0,0,0,1.3536,1.3508,1.3479,1.3546,1.3545,1.3524,1.3562,1.3525,1.3537,1.3527,1.3481,1.3479,1.3534,1.3527,1.3484,1.3586,1.3526,1.3536,1.3588,1.3606,1.3619,1.3618,1.3407,0,0,0,0,0,1.3564,1.3591,1.3566,1.3627,1.3628,1.3595,1.3607,1.3578,1.3576,1.3575,1.3561,1.356,1.3578,1.3592,1.3609,1.3681,1.3674,1.3716,1.373,1.3742,1.3749,1.3782,1.3799,1.362,1.362,1.362,0,0,1.3624,1.3612,1.3632,1.3646,1.3642,1.3669,1.3596,1.3629,1.3648,1.358,1.3624,1.3614,1.361,1.3669,1.3695,1.3665,1.3798,1.3752,1.3761,1.3762,1.3792,1.3808,1.3824,1.3625,1.3624,1.3624,0,0,1.3744,1.374,1.3788,1.3785,1.3779,1.3757,1.3769,1.3753,1.3742,1.3786,1.3735,1.3757,1.3793,1.379,1.3793,1.3911,1.3869,1.3918,1.399,1.4023,1.4037,1.4049,1.4086,1.4101,1.3926,1.3927,1.3927,0,1.3818,1.3857,1.3817,1.3852,1.3858,1.3798,1.3844,1.3844,1.3845,1.385,1.3816,1.3856,1.385,1.3905,1.3934,1.3941,1.395,1.3917,1.4038,1.405,1.4061,1.4096,1.411,1.3932,1.3931,1.3931,1.393,0,1.3946,1.3974,1.4014,1.4013,1.4024,1.4066,1.403,1.4046,1.4017,1.3997,1.4041,1.4031,1.4042,1.4054,1.4027,1.4105,1.4086,1.4047,1.3985,1.4084,1.4116,1.4129,1.394,1.3938,1.3936,1.3935,0,0,1.4125,1.4101,1.4115,1.4113,1.4102,1.4122,1.416,1.417,1.4182,1.4185,1.4213,1.4243,1.4205,1.4209,1.4181,1.421,1.4298,1.4166,1.4165,1.4187,1.4379,1.4406,1.4422,1.4272,1.4274,1.4276,1.4378,0,1.4237,1.4298,1.4262,1.4328,1.4351,1.4294,1.4326,1.4322,1.4305,1.4321,1.4302,1.4322,1.4273,1.4275,1.4301,1.4282,1.4335,1.4274,1.4294,1.4296,1.4293,1.4439,1.4468,1.4564,1.439,1.4393,1.4394,0,1.4375,1.4381,1.445,1.443,1.4438,1.4468,1.4472,1.449,1.4483,1.4469,1.4472,1.4436,1.4469,1.4412,1.4455,1.4415,1.4421,1.4413,1.4415,1.4412,1.4348,1.4436,1.4595,1.4607,1.4414,1.4413,1.4411,0,1.4492,1.4518,1.4561,1.4561,1.4542,1.4563,1.4555,1.4545,1.4553,1.4557,1.4561,1.457,1.4574,1.4582,1.4548,1.451,1.4594,1.4535,1.458,1.4581,1.4597,1.4596,1.4755,1.4609,1.4609,1.4609,1.4609,0,1.4618,1.4661,1.4612,1.4638,1.4684,1.4642,1.4688,1.4675,1.4666,1.4687,1.464,1.4661,1.4616,1.4632,1.4607,1.4644,1.4648,1.4635,1.4626,1.4636,1.4637,1.4637,1.4627,1.4613,1.4612,1.4611,1.4611,0,1.4755,1.4725,1.4767,1.4744,1.4739,1.4773,1.4753,1.4775,1.4754,1.4781,1.4785,1.4753,1.4769,1.4737,1.4749,1.4731,1.4783,1.4767,1.4785,1.4778,1.4823,1.4817,1.4983,1.5001,1.4849,1.4851,1.4852,0,1.4835,1.4866,1.4846,1.4856,1.4851,1.4869,1.4875,1.4836,1.4844,1.4838,1.486,1.4872,1.4879,1.4907,1.4884,1.4892,1.4873,1.493,1.4873,1.4881,1.4868,1.4864,1.4865,1.4941,1.4943,1.4944,1.4945,0,1.4979,1.4962,1.4973,1.4978,1.4987,1.499,1.4989,1.5,1.4957,1.497,1.4984,1.499,1.5001,1.5012,1.5015,1.5006,1.4968,1.4964,1.4974,1.4982,1.4989,1.4981,1.4811,1.4959,1.4958,1.4957,1.4956,1.4956,1.5087,1.511,1.5098,1.5111,1.5106,1.5105,1.5123,1.5105,1.5116,1.5121,1.5098,1.5117,1.5107,1.5107,1.5102,1.5116,1.509,1.5106,1.5109,1.5112,1.5117,1.4991,1.5117,1.5117,1.5116,1.5116,1.5115,0,1.5223,1.5213,1.5225,1.5224,1.5234,1.5198,1.5194,1.5204,1.5222,1.5216,1.5223,1.5239,1.5249,1.5227,1.5233,1.5248,1.523,1.525,1.5246,1.5244,1.5142,1.5131,1.5264,1.5264,1.5264,1.5264,1.5264,1.5264,1.5295,1.5331,1.5312,1.5344,1.5333,1.535,1.5351,1.535,1.5344,1.5363,1.5371,1.5356,1.5343,1.5348,1.5354,1.5348,1.535,1.5376,1.5362,1.5267,1.5252,1.5238,1.5226,1.5378,1.5378,1.5462,1.5463,1.5463]}]]